BADR-5

Last updated on Thu Oct 30 2025 00:02:48 GMT+0000 (Coordinated Universal Time)

1 36592U 10025A 25302.47610441 .00000155 00000+0 00000+0 0 9991 2 36592 0.0377 129.8532 0005207 63.9930 41.6542 1.00270832 50907
UTC large
Height (km)
Speed (km/s)
/
Latitude / Longitude
Inclination (degrees)
Orbital Period (minutes)
Azimuth
Elevation
Range (km)
Doppler Factor

Next 0 passes for location: London (51.5072 / 0.1276)

Sorry there are no passes over London.